Content
SEND FEEDBACK

Daily
Averages
Monthly
Summary
United States of America

SOUTHPORT, NORTH CAROLINA


Home > North America > United States > North Carolina
Elevation: 38 feet     Latitude: 34 00N     Longitude: 078 01W

WEATHER
 
SELECT A DAY
Number of Records: 136,557;   Date Range: 8/21/01 - 8/12/14
 
SHARE

PRINT THIS DATA

[ ← Previous Day ]
WEATHER ALMANAC - APRIL 27, 2014
[ Next Day → ]
[ °C ]   °F
Weather ElementAverageHighLow
Temperature67.8 °F76.5 °F (2:35 pm)60.1 °F (2:15 am)
Dewpoint60.1 °F62.8 °F (11:55 pm)55.6 °F (2:15 am)
Humidity77.3 %93 % (5:35 am)57 % (5:35 pm)
Barometer30.00 in30.05 in (10:55 am)29.95 in (4:35 pm)
Wind Speed6.1 mph11.5 mph (8:35 am)
Wind Gust16.1 mph (5:35 pm)
Weather ElementAverage
Visibility10 mi
Wind DirectionSSW (207.5 °)

Weather ElementTotal
Precipitation---
Cooling Degree Days3.3 (Base 65)
Growing Degree Days18.3 (Base 50)
Averaged from 69 records on April 27, 2014
WEATHER CONDITIONS BREAKOUT
WIND DIRECTION BREAKOUT
WEATHER BY HOUR - APRIL 27, 2014
[ °C ]   °F
Local TimeTemperatureDewpointHumidityBarometerVisibilityWind DirectionWind SpeedGust SpeedPrecipitationEventsConditions
12:35 AM61.9 °F57.7 °F86 %30.00 in10.0 miSW (220°)4.6 mphClear
12:55 AM61.9 °F57.4 °F85 %30.00 in10.0 miSW (230°)5.8 mphClear
1:15 AM61.9 °F57.4 °F85 %30.00 in10.0 miSW (230°)4.6 mphClear
1:35 AM61.2 °F56.7 °F85 %30.00 in10.0 miWSW (250°)3.5 mphClear
2:15 AM60.1 °F55.6 °F85 %29.98 in10.0 miWSW (250°)3.5 mphClear
2:35 AM60.8 °F56.3 °F85 %29.98 in10.0 miWSW (250°)4.6 mphClear
2:55 AM61.0 °F56.5 °F85 %29.98 in10.0 miWSW (250°)5.8 mphClear
3:15 AM61.0 °F56.8 °F86 %29.98 in10.0 miWSW (250°)4.6 mphClear
3:35 AM60.8 °F57.4 °F88 %29.98 in10.0 miWSW (250°)4.6 mphClear
3:55 AM61.5 °F58.1 °F89 %29.98 in10.0 miWSW (250°)5.8 mphClear
4:15 AM61.5 °F58.3 °F89 %29.98 in10.0 miWSW (240°)5.8 mphClear
4:35 AM61.5 °F58.6 °F90 %29.98 in10.0 miWSW (240°)4.6 mphClear
4:55 AM61.0 °F58.6 °F92 %29.99 in10.0 miWSW (240°)3.5 mphClear
5:15 AM61.0 °F58.6 °F92 %29.99 in10.0 miSW (230°)4.6 mphClear
5:35 AM61.0 °F59.0 °F93 %29.99 in10.0 miSW (230°)3.5 mphClear
5:55 AM61.0 °F59.0 °F93 %29.99 in10.0 miSW (230°)4.6 mphClear
6:15 AM61.0 °F58.8 °F93 %29.99 in10.0 miWSW (240°)4.6 mphClear
6:35 AM61.0 °F58.8 °F93 %30.00 in10.0 miWSW (240°)3.5 mphClear
6:55 AM60.8 °F58.8 °F93 %30.01 in10.0 miWSW (240°)3.5 mphClear
7:15 AM61.9 °F59.2 °F91 %30.01 in10.0 miWSW (250°)4.6 mphClear
7:35 AM63.1 °F59.5 °F88 %30.02 in10.0 miWest (260°)5.8 mphClear
7:55 AM64.4 °F59.5 °F84 %30.03 in10.0 miWest (270°)5.8 mphClear
8:15 AM65.5 °F59.4 °F81 %30.03 in10.0 miWest (270°)6.9 mphClear
8:35 AM66.6 °F59.4 °F78 %30.03 in10.0 miWest (270°)11.5 mphClear
8:55 AM68.5 °F59.9 °F74 %30.03 in10.0 miWest (260°)6.9 mphClear
9:15 AM68.9 °F59.7 °F72 %30.03 in10.0 miWSW (250°)8.1 mphClear
9:35 AM69.6 °F59.9 °F71 %30.03 in10.0 miWSW (240°)9.2 mphClear
9:55 AM70.2 °F60.1 °F70 %30.03 in10.0 miWSW (240°)8.1 mphClear
10:15 AM71.1 °F60.6 °F69 %30.04 in10.0 miSW (230°)8.1 mphClear
10:35 AM71.6 °F61.0 °F69 %30.04 in10.0 miSW (230°)10.4 mphClear
10:55 AM72.3 °F61.5 °F69 %30.05 in10.0 miSW (230°)11.5 mphClear
11:15 AM72.5 °F61.7 °F69 %30.04 in10.0 miSW (230°)10.4 mphClear
11:35 AM72.9 °F61.7 °F68 %30.04 in10.0 miSW (230°)10.4 mphClear
11:55 AM73.2 °F61.7 °F67 %30.04 in10.0 miSW (230°)11.5 mphClear
12:15 PM74.3 °F61.7 °F65 %30.03 in10.0 miSW (230°)11.5 mphClear
12:35 PM74.8 °F62.2 °F65 %30.02 in10.0 miSW (230°)9.2 mphClear
12:55 PM75.6 °F62.2 °F63 %30.01 in10.0 miSW (230°)11.5 mphClear
1:35 PM76.1 °F62.2 °F62 %30.00 in10.0 miSW (220°)9.2 mphClear
1:55 PM76.3 °F62.1 °F61 %30.00 in10.0 miSW (220°)8.1 mphClear
2:15 PM76.3 °F62.4 °F62 %29.99 in10.0 miSW (230°)9.2 mphClear
2:35 PM76.5 °F62.4 °F62 %29.99 in10.0 miSW (220°)9.2 mphClear
2:55 PM76.3 °F61.5 °F60 %29.99 in10.0 miSW (220°)6.9 mphClear
3:15 PM76.3 °F61.3 °F60 %29.99 in10.0 miSW (220°)10.4 mphClear
3:35 PM76.5 °F61.9 °F61 %29.98 in10.0 miSW (220°)9.2 mphClear
3:55 PM76.1 °F62.4 °F62 %29.97 in10.0 miSSW (210°)10.4 mphClear
4:15 PM75.6 °F62.4 °F64 %29.96 in10.0 miSSW (200°)6.9 mphClear
4:35 PM75.2 °F60.6 °F60 %29.95 in10.0 miSW (220°)8.1 mphClear
4:55 PM74.8 °F59.0 °F58 %29.95 in10.0 miSSW (200°)9.2 mphClear
5:15 PM74.3 °F59.5 °F60 %29.96 in10.0 miSSW (210°)8.1 mphClear
5:35 PM74.3 °F57.9 °F57 %29.96 in10.0 miSW (220°)9.2 mph16.1 mphClear
5:55 PM72.5 °F58.5 °F61 %29.96 in10.0 miSSW (210°)6.9 mphClear
6:15 PM71.1 °F59.0 °F66 %29.97 in10.0 miSW (220°)6.9 mphClear
6:35 PM70.9 °F59.2 °F66 %29.97 in10.0 miSSW (210°)5.8 mphClear
6:55 PM70.0 °F59.4 °F69 %29.97 in10.0 miSW (220°)6.9 mphClear
7:15 PM69.1 °F60.3 °F73 %29.97 in10.0 miSSW (210°)4.6 mphClear
7:35 PM68.5 °F60.6 °F76 %29.98 in10.0 miSSW (210°)5.8 mphClear
7:55 PM67.3 °F61.0 °F80 %29.99 in10.0 miSW (230°)4.6 mphClear
8:15 PM66.6 °F61.7 °F84 %29.99 in10.0 miSW (220°)3.5 mphClear
8:35 PM66.2 °F61.7 °F85 %29.99 in10.0 miSSW (210°)3.5 mphClear
8:55 PM66.2 °F61.7 °F85 %29.99 in10.0 miCalmClear
9:15 PM66.2 °F61.2 °F84 %29.99 in10.0 miCalmClear
9:35 PM65.3 °F61.7 °F88 %30.00 in10.0 miCalmClear
9:55 PM65.5 °F61.2 °F86 %29.99 in10.0 miSSW (210°)3.5 mphClear
10:15 PM65.3 °F61.5 °F88 %30.00 in10.0 miCalmClear
10:35 PM64.4 °F61.7 °F91 %30.00 in10.0 miSSE (160°)3.5 mphClear
10:55 PM65.3 °F62.6 °F91 %30.00 in10.0 miCalmClear
11:15 PM65.3 °F62.6 °F91 %30.00 in10.0 miCalmClear
11:35 PM65.3 °F62.6 °F91 %30.00 in10.0 miCalmClear
11:55 PM65.3 °F62.8 °F92 %30.00 in10.0 miWest (260°)3.5 mphClear
Hourly data recorded from KSUT, located miles away from Southport, North Carolina







STORIES FROM OUR PARTNERS